Location: Zengebe
(1.4833°N, 32.5167°E)
Time: 22:50:56
(UTC+00:00)

Cosmos 494 Rocket - Pass Details

Date: 07 June 2020
Orbit: 743 x 770 km, 74.1° (Epoch: 10 July)

Event Time Altitude Azimuth Distance (km) Brightness Sun altitude
Rises 03:01:22 0° 194° (SSW) 3,231 6.9 -10.3°
Reaches altitude 10° 03:03:45 10° 195° (SSW) 2,306 6.1 -9.8°
Maximum altitude 03:08:59 81° 282° (WNW) 781 4.0 -8.6°
Drops below altitude 10° 03:14:13 10° 9° (N) 2,301 7.0 -7.4°
Sets 03:16:35 0° 10° (N) 3,224 7.7 -6.9°
